Theta_e
297 297 296 296 295 295 294 294 294 293 293 293 292 292 292 291 291 291 290 290 290 289 289 289 289 288 288 288 288 288 288 288 288 288 288 288 288 288 288 288 287 287
297 296 296 296 295 295 294 294 294 293 293 293 292 292 292 291 291 291 290 290 289 289 289 289 289 288 288 289 289 289 289 289 289 289 289 289 289 289 289 288 288 288
297 296 296 295 295 295 294 294 294 293 293 293 292 292 292 291 291 290 290 289 289 289 289 289 289 289 289 289 289 289 289 289 289 289 289 289 289 288 288 288 288 287
296 296 296 295 295 294 294 294 294 294 293 293 292 292 292 291 291 290 290 289 289 289 289 289 289 289 289 289 289 289 289 289 289 289 289 289 288 288 288 287 287 287
296 296 295 295 294 294 294 294 294 294 293 293 292 292 291 291 290 289 289 289 289 289 289 289 289 289 289 289 289 289 289 289 289 289 289 288 288 288 287 287 287 286
296 296 295 294 294 294 294 294 294 293 293 293 292 291 291 290 289 289 289 289 289 289 289 289 289 289 289 289 289 289 288 288 288 288 288 288 288 287 287 287 286 286
295 295 295 294 294 294 294 294 293 293 293 292 291 290 290 289 289 289 289 289 289 289 289 289 289 288 288 288 288 288 288 288 288 288 288 288 287 287 287 286 286 286
294 294 294 294 293 293 293 293 293 292 292 291 290 290 289 289 289 289 289 289 289 289 289 288 288 288 288 288 287 287 287 287 287 287 287 287 287 287 287 286 286 285
293 293 292 292 292 292 292 292 291 291 291 290 290 289 289 289 289 289 289 289 289 288 288 288 288 288 288 288 287 287 287 287 287 287 287 287 287 287 286 286 285 285
292 292 291 291 291 291 290 290 290 290 290 289 289 289 289 288 288 288 288 288 288 288 288 288 288 288 288 288 287 287 287 287 287 286 286 286 286 286 286 285 285 284
292 291 290 290 290 290 290 289 289 289 289 289 289 288 288 288 288 288 288 288 288 288 288 288 288 288 288 288 288 288 287 287 287 286 286 286 286 286 285 285 284 284
291 290 289 289 289 289 289 289 289 289 288 288 288 288 288 288 288 288 288 288 288 288 288 288 288 288 288 288 288 288 288 287 287 286 286 286 286 285 285 284 284 283
290 289 289 289 289 289 289 288 288 288 288 288 288 288 288 288 288 288 288 288 288 288 288 288 288 288 288 288 288 288 287 287 287 286 286 286 285 285 284 283 283 283
290 289 289 288 288 288 288 288 288 288 288 288 288 288 289 289 289 289 288 288 288 288 288 288 288 288 288 288 288 287 287 287 287 286 286 285 285 284 283 283 283 283
289 289 289 288 288 288 288 288 288 288 288 288 288 288 289 289 289 289 288 288 288 288 288 288 288 288 288 287 287 287 287 287 287 286 285 285 284 283 282 282 282 283
289 289 288 288 288 288 288 287 287 288 287 288 288 288 289 289 289 288 288 288 288 288 288 288 288 287 287 287 287 287 287 287 286 286 285 285 284 283 282 282 282 282
290 289 288 288 288 287 287 287 287 287 287 288 288 288 288 288 288 288 288 288 288 288 288 288 287 287 287 287 287 287 287 286 286 285 285 284 283 282 282 282 282 282
290 288 288 288 287 287 287 287 287 287 287 287 288 288 288 288 288 288 288 288 288 288 288 287 287 287 287 287 287 286 286 286 285 285 285 284 282 282 282 282 282 282
289 288 288 288 287 287 287 287 287 287 287 287 287 288 288 288 288 288 288 288 288 287 287 287 287 287 287 286 286 286 286 285 285 285 284 283 282 282 282 282 282 282
289 288 288 288 287 287 287 287 287 287 287 287 287 287 287 288 287 287 287 287 287 287 287 287 287 286 286 286 286 286 286 285 285 284 283 282 281 281 281 281 281 281
290 289 289 288 288 287 287 287 287 287 287 287 287 287 287 287 287 287 287 287 287 287 287 287 286 286 286 286 286 286 285 285 284 284 282 281 281 281 281 281 281 281
291 290 290 290 289 288 288 288 288 287 287 287 286 287 287 287 287 287 287 287 287 287 287 287 286 286 286 286 286 285 285 284 284 283 282 281 281 281 281 281 281 281
292 292 291 291 290 289 289 289 289 288 287 287 287 287 287 287 287 287 287 287 287 287 287 286 286 286 286 286 285 285 284 284 284 282 281 281 281 281 281 281 281 281
293 292 292 291 291 290 289 289 289 288 288 288 288 288 288 287 287 287 287 287 287 287 286 286 286 286 286 285 285 285 284 284 283 282 281 281 281 281 281 281 281 281
293 292 292 291 290 290 289 289 289 289 289 288 288 288 288 287 287 287 287 287 287 286 286 286 286 286 285 285 285 284 284 283 282 281 281 281 281 280 280 280 280 280
293 292 291 290 290 289 289 289 289 289 288 288 288 288 288 287 287 287 287 287 286 286 286 286 285 285 285 285 284 284 283 282 281 280 280 280 280 280 280 280 280 279
Wind_Speed
8 7 6 6 5 5 5 4 4 3 3 2 2 1 2 2 3 4 5 6 7 8 9 11 12 13 13 14 15 15 17 17 18 19 20 21 22 22 23 23 23 24
8 7 6 6 6 6 6 5 4 3 2 2 1 1 1 3 4 5 6 7 8 9 10 11 12 13 15 16 17 18 19 20 21 21 22 23 23 24 25 25 25 26
9 8 7 7 7 6 6 5 4 3 3 3 2 3 4 4 5 6 7 8 9 10 11 12 13 15 16 17 18 19 19 20 20 21 22 22 23 23 24 24 25 25
10 9 9 8 8 7 6 5 5 5 4 4 4 5 5 6 7 7 8 9 10 11 12 13 14 14 15 16 17 18 19 19 20 20 21 22 23 23 23 24 24 24
11 11 10 10 9 8 8 7 7 7 7 7 7 7 7 8 8 9 10 11 11 12 12 13 14 14 15 16 17 18 19 20 20 21 22 22 23 23 23 23 24 24
13 13 12 11 11 10 10 9 10 9 9 9 9 10 10 10 10 11 11 11 11 11 12 13 14 15 15 16 17 18 19 20 20 21 21 22 22 23 23 23 23 24
15 15 14 14 13 12 12 12 12 11 11 12 12 12 12 12 12 11 11 10 10 10 11 12 14 14 15 16 17 18 19 19 20 21 21 21 22 22 22 23 23 23
18 17 16 16 15 14 14 14 14 14 14 14 14 14 13 13 12 11 10 9 9 10 11 12 13 14 14 16 17 18 19 20 21 21 22 22 22 22 22 23 23 23
20 19 18 18 17 16 16 15 15 15 15 15 15 14 14 13 11 10 9 9 9 10 11 12 13 14 16 17 19 20 21 22 23 23 23 23 22 22 22 22 23 23
21 21 20 19 18 17 16 16 16 16 16 16 15 15 13 12 11 10 9 9 9 10 11 13 14 16 18 19 20 22 23 24 25 25 25 24 23 23 23 23 23 23
22 22 21 19 19 18 17 17 17 17 17 16 15 15 13 12 11 10 9 9 9 10 12 14 15 17 19 21 22 24 26 27 28 28 27 26 25 24 23 23 23 23
23 23 22 20 20 19 18 18 18 18 18 17 16 15 14 12 11 10 10 10 10 11 13 14 16 18 20 22 24 26 27 29 30 30 28 27 25 24 24 24 23 23
25 24 22 22 21 20 20 20 20 19 19 18 17 16 14 13 11 11 10 11 12 13 14 15 17 19 21 22 24 26 28 30 31 31 29 27 25 24 24 24 24 23
26 24 23 23 22 22 21 21 21 21 20 19 18 16 15 13 12 12 12 12 13 14 15 16 18 19 21 23 24 27 29 30 32 32 30 27 26 25 24 24 24 24
27 26 25 25 24 23 23 23 23 22 21 20 19 17 15 14 14 14 14 15 15 16 16 17 19 20 22 23 25 27 29 31 32 32 30 28 26 26 25 25 25 25
29 28 27 26 25 24 24 24 24 23 22 21 20 18 17 16 17 17 17 17 17 18 18 19 20 21 23 24 25 27 29 31 32 32 30 28 27 26 26 25 25 25
31 29 28 27 26 25 26 26 25 25 24 22 21 20 20 19 20 20 19 20 20 20 20 20 21 22 23 25 26 27 29 31 32 32 30 28 27 27 27 26 26 26
31 29 29 29 28 27 27 27 26 26 25 24 23 22 22 22 22 23 22 22 22 22 22 22 22 23 25 26 26 27 29 31 32 32 30 29 28 27 27 27 27 27
30 30 30 29 29 28 28 27 27 27 27 26 25 25 25 25 24 25 24 24 24 24 24 24 23 24 25 26 27 28 29 31 32 32 30 29 28 27 27 27 27 28
31 30 30 30 29 29 28 28 28 29 29 29 28 27 27 27 26 27 26 26 26 25 26 25 24 25 26 27 28 28 30 31 32 31 30 29 29 27 27 27 28 28
31 30 29 29 29 29 29 28 29 30 30 31 30 30 29 29 28 29 28 28 27 27 27 27 25 25 27 28 28 29 30 31 32 31 30 30 29 28 27 28 28 28
31 29 29 28 28 29 29 29 29 30 31 31 31 31 30 30 30 30 30 29 29 28 28 27 26 26 28 29 29 29 30 32 32 31 31 30 29 28 28 28 28 29
30 29 28 27 28 29 29 29 30 30 30 31 31 31 31 31 31 31 31 31 30 29 28 28 27 27 28 29 29 29 31 32 32 31 31 31 29 29 29 29 29 30
28 28 27 27 28 29 29 29 29 29 30 30 30 31 32 32 32 32 32 31 30 29 29 29 28 28 28 29 29 29 30 32 32 32 31 31 30 30 30 30 30 31
27 27 27 28 28 29 28 28 28 28 29 29 30 31 32 32 31 31 31 30 29 29 29 29 29 29 28 29 28 29 30 31 32 32 32 31 31 31 31 31 31 31
25 26 27 28 28 27 26 26 27 27 28 28 28 29 30 30 30 30 30 29 29 29 29 29 30 30 29 29 29 29 29 30 31 32 32 31 31 31 32 31 31 31
Wind_Direction
163 159 152 151 154 157 158 154 148 138 124 114 88 66 39 15 3 356 354 353 354 353 351 350 349 347 345 343 342 339 337 335 334 333 333 333 332 331 330 329 329 329
170 166 164 166 171 173 171 168 164 160 161 171 179 287 318 328 332 336 340 342 343 342 340 339 336 334 331 329 328 326 326 326 325 325 325 325 324 323 322 321 320 320
177 177 177 181 185 186 183 181 184 191 209 228 249 277 295 307 314 321 325 327 327 325 324 321 318 317 317 317 318 318 319 319 319 319 318 318 317 315 314 313 313 312
187 188 191 195 196 196 197 200 210 221 234 249 261 273 284 293 299 304 305 305 305 304 305 306 309 311 312 314 315 315 314 313 314 314 313 312 311 309 308 307 307 308
197 199 201 205 206 208 212 219 228 236 243 253 260 266 272 277 281 285 287 289 292 297 303 308 312 314 315 316 315 313 312 311 311 310 308 306 305 304 304 304 304 305
205 208 210 212 214 218 223 229 235 239 245 251 255 259 262 265 269 274 279 285 293 302 308 312 314 316 316 315 314 312 310 309 308 307 305 303 303 303 303 303 304 305
213 215 216 218 221 224 228 233 236 239 243 247 249 253 256 259 264 270 277 287 297 305 310 314 315 317 317 317 317 316 314 312 311 309 307 306 305 305 305 305 305 306
217 219 221 223 224 227 231 234 237 239 241 244 245 247 252 256 260 267 277 287 298 305 310 313 316 320 323 325 327 326 325 323 320 317 314 312 310 309 308 308 309 309
220 221 223 224 225 228 232 234 236 238 239 240 243 246 250 253 258 265 275 287 297 304 310 314 319 323 327 330 331 332 331 330 328 325 320 317 314 312 311 311 311 311
222 224 225 226 227 229 232 234 236 237 238 240 242 244 246 250 257 265 274 285 296 304 312 317 320 323 325 327 329 329 331 331 330 328 324 319 315 313 312 311 311 312
225 226 226 227 229 231 233 235 237 238 239 241 241 243 246 250 256 263 273 285 297 307 313 317 319 320 322 324 325 326 328 329 330 329 325 320 316 314 312 312 312 312
227 227 228 229 231 233 235 237 239 239 240 241 241 243 246 249 254 263 275 287 297 304 309 312 316 318 320 322 323 324 326 328 329 329 325 319 315 312 311 311 311 311
230 230 231 232 234 235 237 239 239 240 240 241 243 245 246 249 257 267 276 286 293 298 303 308 312 315 317 319 321 323 325 326 327 327 323 317 312 311 310 310 310 310
233 233 233 234 236 237 238 239 238 239 240 241 243 245 246 252 260 267 274 280 287 293 299 304 309 312 314 316 319 321 323 324 325 325 321 315 310 310 310 310 309 309
235 234 234 235 237 238 238 239 238 238 240 242 243 245 249 256 261 266 271 277 284 291 296 302 306 308 311 314 316 319 321 323 323 321 317 312 309 309 309 309 309 308
237 236 236 237 238 238 239 239 238 239 241 243 244 247 252 258 262 265 270 277 283 289 294 298 302 304 308 311 314 317 319 320 320 318 314 310 308 309 309 308 308 308
239 237 237 238 238 238 239 240 239 240 242 244 246 250 255 259 262 266 271 277 283 288 292 295 299 302 305 308 312 315 317 317 317 315 312 308 308 309 308 308 308 308
240 238 238 239 239 239 241 241 241 241 244 246 249 254 258 260 263 268 272 277 282 287 290 293 297 300 303 306 310 313 315 315 315 313 309 307 308 308 308 309 308 308
241 239 239 240 241 242 243 242 243 244 246 249 252 255 259 261 264 269 273 277 282 286 288 291 294 297 300 305 309 312 313 313 312 310 307 306 308 308 308 308 308 309
240 240 241 242 243 244 245 244 245 246 248 251 254 256 260 262 266 270 273 277 281 285 287 289 291 295 300 304 308 310 311 310 309 307 305 305 307 307 307 307 308 309
241 240 241 244 244 245 246 247 247 249 250 253 255 258 262 264 267 270 274 278 281 283 285 287 289 294 299 304 307 309 309 308 306 305 303 304 305 305 305 306 307 308
241 240 242 244 245 246 248 248 249 251 253 255 258 261 264 267 269 272 275 278 280 281 283 285 288 294 298 302 305 306 306 306 304 302 301 302 302 303 304 304 306 307
239 240 243 245 246 247 248 249 252 254 256 259 262 264 267 269 271 273 275 277 278 279 281 283 287 292 297 300 302 304 304 303 301 299 299 300 300 302 302 303 305 307
237 239 243 245 246 247 248 251 254 257 260 263 265 268 269 271 271 273 274 275 276 277 279 281 285 290 295 297 300 302 302 300 298 297 298 299 300 301 302 302 305 307
237 239 242 243 244 246 248 252 256 259 262 265 266 268 269 269 270 271 272 273 273 275 276 279 284 289 292 295 297 299 299 297 296 296 297 299 300 300 300 301 304 307
237 239 240 241 243 246 248 252 255 258 261 262 263 265 266 267 267 268 269 270 271 271 273 278 283 288 291 293 295 296 296 295 294 296 297 298 299 298 299 301 304 307